map of OHS home
OHS - Airport
Location
City:  Sohar, Oman
Near (Alt.):Majis
ICAO:OOSH
IATA:OHS

Details
Type:Airport (Aerodrome, Airfield)
Latitude:2423'10"N (24.386167)
Longitude:5637'32"E (56.625667)
Elevation:105 ft (32 m)
Variation:1.83E (WMM2015v2 magnetic declination)
0.05 annual change
Runways:1
Longest:13100 ft (3993 m), paved

Time
Time Zone:UTC+4
Local Time:

Weather
METAR:OOSH 041350Z AUTO 27010KT //// 26/14 Q1016 RMK 1012
TAF:OOSH 041100Z 0412/0518 24010KT 8000 SCT025 PROB30
TEMPO 0412/0416 TSRA FEW025CB BKN030 PROB30
TEMPO 0500/0504 BKN030
BECMG 0506/0508 06012KT

Related Locations
Nearby:
Farthest:GMR: 11713 mi / 18850 km
Mangareva [Totegegie], Gambier Islands, PF

Find:

   beyond  
but within

Other Information
Maps:
NOTAMs:
Links:
Sources:

  
  • flag of Oman
  

Sectional Chart

Flight Planning
at skyvector.com

Satellite Image

Google Maps Satellite view

 

Copyright © 2004-2019 Karl L. Swartz. All rights reserved.
The Great Circle Mapper name and logo are trademarks of the Great Circle Mapper.
All other trademarks mentioned herein belong to their respective owners.
Please see credits for attibutions and further copyright information.

  Follow gcmap on Facebook Follow gcmap on Twitter GCmap on LinkedIn

hCard Microformat

Geo Microformat